Location: Prescott
(34.5400°N, 112.4680°W)
Time: 16:12:35
(UTC-07:00)

Tiangong 1 - Visible Passes

Search period start: 21 November 2017 00:00
Search period end: 01 December 2017 00:00
Orbit: 284 x 308 km, 42.8° (Epoch: 21 November)

Date Brightness Start Highest point End Pass type
(mag) Time Alt. Az. Time Alt. Az. Time Alt. Az.
22 Nov 2.2 18:31:10 10° SSW 18:33:14 21° SE 18:33:17 21° SE visible
23 Nov 0.8 18:37:22 10° SW 18:39:53 52° SSE 18:39:58 52° SE visible
24 Nov 0.8 18:43:57 10° WSW 18:46:29 60° NNW 18:46:29 60° NNW visible
25 Nov 2.2 18:50:47 10° W 18:52:48 29° NW 18:52:48 29° NW visible
26 Nov 3.0 18:57:41 10° WNW 18:58:58 17° NW 18:58:58 17° NW visible
27 Nov 3.6 19:04:33 10° NW 19:04:58 12° NW 19:04:58 12° NW visible
30 Nov 2.9 17:48:10 10° NW 17:49:43 14° N 17:51:16 10° NNE visible
